• In Hungary
  • List of Countries
  • For 7 days
  • Water Temperature
  • Satellite Maps
  • Weather Map
  • News
  • Weather Widgets
  • user-avatar
    Login

    Hourly Weather Harelbeke

    Today, 20 September, Thursday

    Time Temperature Precipitation Wind Pressure Humidity
    00:00 +18°C° 0 mm 4 mps 760 mmHg 81%
    01:00 +18°C° 0 mm 4 mps 760 mmHg 83%
    02:00 +17°C° 0 mm 4 mps 760 mmHg 85%
    03:00 +17°C° 0 mm 4 mps 760 mmHg 87%
    04:00 +17°C° 0 mm 4 mps 760 mmHg 88%
    05:00 +15°C° 0 mm 4 mps 760 mmHg 90%
    06:00 +15°C° 0 mm 4 mps 760 mmHg 92%
    07:00 +16°C° 0 mm 5 mps 760 mmHg 86%
    08:00 +19°C° 0 mm 6 mps 760 mmHg 79%
    09:00 +20°C° 0 mm 7 mps 760 mmHg 73%
    10:00 +21°C° 0 mm 6 mps 759 mmHg 68%
    11:00 +22°C° 0 mm 6 mps 759 mmHg 63%
    12:00 +24°C° 0 mm 6 mps 759 mmHg 58%
    13:00 +24°C° 0 mm 6 mps 758 mmHg 57%
    14:00 +26°C° 0 mm 6 mps 758 mmHg 55%
    15:00 +26°C° 0 mm 6 mps 757 mmHg 54%
    16:00 +24°C° 0 mm 6 mps 756 mmHg 57%
    17:00 +23°C° 0 mm 5 mps 756 mmHg 61%
    18:00 +22°C° 0 mm 5 mps 755 mmHg 64%
    19:00 +22°C° 0 mm 5 mps 755 mmHg 63%
    20:00 +22°C° 0 mm 6 mps 754 mmHg 61%
    21:00 +22°C° 0 mm 6 mps 754 mmHg 60%
    22:00 +21°C° 0 mm 7 mps 753 mmHg 62%
    23:00 +21°C° 0 mm 7 mps 753 mmHg 63%

    Tomorrow, 21 September, Friday

    Time Temperature Precipitation Wind Pressure Humidity
    00:00 +20°C° 0 mm 7 mps 752 mmHg 65%
    01:00 +20°C° 0 mm 8 mps 751 mmHg 66%
    02:00 +19°C° 0 mm 9 mps 750 mmHg 67%
    03:00 +19°C° 0 mm 10 mps 750 mmHg 68%
    04:00 +18°C° 1.9 mm 10 mps 750 mmHg 71%
    05:00 +17°C° 1.9 mm 10 mps 750 mmHg 73%
    06:00 +16°C° 1.9 mm 10 mps 750 mmHg 76%
    07:00 +16°C° 0.1 mm 10 mps 752 mmHg 71%
    08:00 +14°C° 0.1 mm 10 mps 753 mmHg 67%
    09:00 +14°C° 0.1 mm 10 mps 754 mmHg 62%
    10:00 +14°C° 0 mm 10 mps 755 mmHg 58%
    11:00 +16°C° 0 mm 10 mps 755 mmHg 54%
    12:00 +16°C° 0 mm 10 mps 756 mmHg 50%
    13:00 +16°C° 0.1 mm 10 mps 757 mmHg 49%
    14:00 +16°C° 0.1 mm 10 mps 757 mmHg 48%
    15:00 +16°C° 0.1 mm 10 mps 758 mmHg 47%
    16:00 +15°C° 0.1 mm 9 mps 758 mmHg 50%
    17:00 +15°C° 0.1 mm 8 mps 759 mmHg 54%
    18:00 +14°C° 0.1 mm 7 mps 759 mmHg 57%
    19:00 +12°C° 0.1 mm 7 mps 760 mmHg 59%
    20:00 +12°C° 0.1 mm 7 mps 760 mmHg 61%
    21:00 +13°C° 0.1 mm 6 mps 761 mmHg 63%
    22:00 +13°C° 0 mm 6 mps 761 mmHg 65%
    23:00 +11°C° 0 mm 6 mps 761 mmHg 67%

    Day after tomorrow, 22 September, Saturday

    Time Temperature Precipitation Wind Pressure Humidity
    00:00 +11°C° 0 mm 6 mps 762 mmHg 69%
    01:00 +12°C° 0 mm 5 mps 762 mmHg 70%
    02:00 +12°C° 0 mm 5 mps 762 mmHg 71%
    03:00 +12°C° 0 mm 5 mps 762 mmHg 72%
    04:00 +12°C° 0 mm 5 mps 763 mmHg 72%
    05:00 +12°C° 0 mm 4 mps 763 mmHg 73%
    06:00 +12°C° 0 mm 4 mps 763 mmHg 73%
    07:00 +13°C° 0 mm 4 mps 763 mmHg 69%
    08:00 +14°C° 0 mm 5 mps 763 mmHg 65%
    09:00 +15°C° 0 mm 5 mps 764 mmHg 60%
    10:00 +15°C° 0.1 mm 5 mps 764 mmHg 60%
    11:00 +16°C° 0.1 mm 5 mps 764 mmHg 60%
    12:00 +17°C° 0.1 mm 4 mps 764 mmHg 60%
    13:00 +15°C° 0.2 mm 4 mps 764 mmHg 64%
    14:00 +15°C° 0.2 mm 4 mps 763 mmHg 68%
    15:00 +14°C° 0.2 mm 3 mps 763 mmHg 72%
    16:00 +14°C° 0.4 mm 3 mps 763 mmHg 77%
    17:00 +13°C° 0.4 mm 3 mps 763 mmHg 81%
    18:00 +13°C° 0.4 mm 2 mps 762 mmHg 85%
    19:00 +12°C° 0.7 mm 3 mps 762 mmHg 86%
    20:00 +12°C° 0.7 mm 4 mps 761 mmHg 87%
    21:00 +12°C° 0.7 mm 4 mps 761 mmHg 88%
    22:00 +12°C° 0.7 mm 5 mps 760 mmHg 86%
    23:00 +11°C° 0.7 mm 6 mps 758 mmHg 83%

    23 September, Sunday

    Time Temperature Precipitation Wind Pressure Humidity
    00:00 +12°C° 0.7 mm 7 mps 757 mmHg 81%
    01:00 +14°C° 0.6 mm 7 mps 756 mmHg 85%
    02:00 +16°C° 0.6 mm 7 mps 756 mmHg 88%
    03:00 +17°C° 0.6 mm 8 mps 755 mmHg 92%
    04:00 +18°C° 0.6 mm 8 mps 754 mmHg 92%
    05:00 +18°C° 0.6 mm 8 mps 753 mmHg 92%
    06:00 +20°C° 0.6 mm 8 mps 753 mmHg 92%
    07:00 +19°C° 0.4 mm 9 mps 752 mmHg 90%
    08:00 +21°C° 0.4 mm 10 mps 752 mmHg 89%
    09:00 +21°C° 0.4 mm 11 mps 751 mmHg 87%
    10:00 +21°C° 0.9 mm 11 mps 751 mmHg 87%
    11:00 +21°C° 0.9 mm 11 mps 751 mmHg 86%
    12:00 +21°C° 0.9 mm 11 mps 750 mmHg 86%
    13:00 +19°C° 0.9 mm 11 mps 750 mmHg 84%
    14:00 +19°C° 0.9 mm 11 mps 750 mmHg 82%
    15:00 +18°C° 0.9 mm 11 mps 750 mmHg 80%
    16:00 +16°C° 0.4 mm 11 mps 752 mmHg 80%
    17:00 +14°C° 0.4 mm 12 mps 754 mmHg 80%
    18:00 +12°C° 0.4 mm 13 mps 755 mmHg 81%
    19:00 +12°C° 0.1 mm 11 mps 758 mmHg 78%
    20:00 +11°C° 0.1 mm 9 mps 760 mmHg 75%
    21:00 +11°C° 0.1 mm 7 mps 763 mmHg 73%
    22:00 +11°C° 0.1 mm 7 mps 764 mmHg 73%
    23:00 +10°C° 0.1 mm 6 mps 765 mmHg 73%

    24 September, Monday

    Time Temperature Precipitation Wind Pressure Humidity
    00:00 +10°C° 0.1 mm 6 mps 767 mmHg 73%
    01:00 +10°C° 0 mm 6 mps 767 mmHg 74%
    02:00 +9°C° 0 mm 5 mps 768 mmHg 74%
    03:00 +9°C° 0 mm 5 mps 769 mmHg 75%
    04:00 +10°C° 0.1 mm 4 mps 770 mmHg 76%
    05:00 +10°C° 0.1 mm 4 mps 771 mmHg 76%
    06:00 +10°C° 0.1 mm 4 mps 772 mmHg 77%
    07:00 +11°C° 0.1 mm 4 mps 772 mmHg 72%
    08:00 +12°C° 0.1 mm 4 mps 773 mmHg 67%
    09:00 +13°C° 0.1 mm 5 mps 773 mmHg 62%
    10:00 +14°C° 0.1 mm 5 mps 774 mmHg 60%
    11:00 +14°C° 0.1 mm 5 mps 774 mmHg 58%
    12:00 +14°C° 0.1 mm 5 mps 774 mmHg 56%
    13:00 +14°C° 0.1 mm 5 mps 774 mmHg 55%
    14:00 +14°C° 0.1 mm 5 mps 774 mmHg 54%
    15:00 +14°C° 0.1 mm 6 mps 774 mmHg 53%
    16:00 +13°C° 0 mm 5 mps 774 mmHg 55%
    17:00 +12°C° 0 mm 4 mps 775 mmHg 57%
    18:00 +11°C° 0 mm 3 mps 775 mmHg 59%
    19:00 +10°C° 0 mm 2 mps 775 mmHg 61%
    20:00 +10°C° 0 mm 2 mps 776 mmHg 62%
    21:00 +10°C° 0 mm 1 mps 776 mmHg 64%
    22:00 +10°C° 0 mm 1 mps 776 mmHg 65%
    23:00 +10°C° 0 mm 1 mps 776 mmHg 67%

    25 September, Tuesday

    Time Temperature Precipitation Wind Pressure Humidity
    00:00 +10°C° 0 mm 1 mps 776 mmHg 68%
    01:00 +10°C° 0 mm 1 mps 776 mmHg 70%
    02:00 +8°C° 0 mm 0 mps 776 mmHg 71%
    03:00 +8°C° 0 mm 0 mps 776 mmHg 73%
    04:00 +9°C° 0 mm 1 mps 776 mmHg 74%
    05:00 +9°C° 0 mm 1 mps 776 mmHg 74%
    06:00 +9°C° 0 mm 1 mps 776 mmHg 75%
    07:00 +11°C° 0 mm 1 mps 776 mmHg 70%
    08:00 +12°C° 0 mm 1 mps 777 mmHg 64%
    09:00 +14°C° 0 mm 1 mps 777 mmHg 59%
    10:00 +15°C° 0 mm 1 mps 776 mmHg 55%
    11:00 +16°C° 0 mm 2 mps 776 mmHg 52%
    12:00 +17°C° 0 mm 2 mps 776 mmHg 49%
    13:00 +17°C° 0 mm 2 mps 775 mmHg 49%
    14:00 +17°C° 0 mm 2 mps 775 mmHg 48%
    15:00 +18°C° 0 mm 2 mps 774 mmHg 48%
    16:00 +16°C° 0 mm 2 mps 774 mmHg 53%
    17:00 +15°C° 0 mm 2 mps 774 mmHg 59%
    18:00 +13°C° 0 mm 2 mps 773 mmHg 64%
    19:00 +13°C° 0 mm 2 mps 774 mmHg 66%
    20:00 +12°C° 0 mm 2 mps 774 mmHg 69%
    21:00 +10°C° 0 mm 2 mps 774 mmHg 71%
    22:00 +10°C° 0 mm 2 mps 774 mmHg 72%
    23:00 +9°C° 0 mm 2 mps 773 mmHg 73%
    Show more